User: anonymous   Login
Location: Unspecified
(0.0000°N, 0.0000°E)
Time: 06:09:02
(UTC+00:00)
Language:

ADEOS - Orbit

View from above orbital plane
View from above orbital plane
View from above satellite
View from above satellite

Ground track
Ground track

The orbit data is extracted from the following two-line orbital elements,

1 24277U 96046A   17296.46524982  .00000028  00000-0  28592-4 0  9992
2 24277  98.7366 246.5927 0000952  14.0227 346.0981 14.29397204104546
Epoch (UTC): 23 October 2017 11:09:57
Eccentricity: 0.0000952
inclination: 98.7366°
perigee height: 793 km
apogee height: 794 km
right ascension of ascending node: 246.5927°
argument of perigee: 14.0227°
revolutions per day: 14.29397204
mean anomaly at epoch: 346.0981°
orbit number at epoch: 10454

The dashed part of the orbit path shows where the satellite is in the earth's shadow,  

DLR